Location: *
(50.3440°N, 18.6237°E)
Time: 17:49:42
(UTC+00:00)

Nadezhda 3 Rocket - Pass Details

Date: 30 November 2020
Orbit: 956 x 1000 km, 82.9° (Epoch: 17 January)

Event Time Altitude Azimuth Distance (km) Brightness Sun altitude
Rises 16:56:07 0° 174° (S) 3,708 7.1 -20.0°
Reaches altitude 10° 16:58:39 10° 171° (S) 2,764 6.4 -20.4°
Maximum altitude 17:04:53 60° 93° (E) 1,139 4.0 -21.4°
Drops below altitude 10° 17:11:08 10° 16° (NNE) 2,779 6.2 -22.4°
Sets 17:13:42 0° 13° (NNE) 3,729 6.9 -22.8°
